Notices

What's New in latest Release from April 7th, 2021:

- Updated Glossary, including Speed of Maximum Gust, and Total Hourly Precipitation

- Updated national and regional climate services offices contacts and prices information

- Addition of station inventory lists for 1981-2010, 1971-2000, and 1961-1990 Normals.

If you haven't already, please take our survey and provide feedback about our website: https://eccc.sondage-survey.ca/f/LanguageSelection.aspx?s=442ca660-fcf1-47c0-95a9-59707d6fd709

Hourly Data Report for February 15, 2021

OTTAWA INTL A
ONTARIO
Current Station Operator: NAVCAN

45°19'00.000" N
75°40'00.000" W
114.90 m
6106001
71628
YOW

Download Data

Hourly Data (February 2021)
Hourly Data Report for February 15, 2021
TIME
LST
Temp Definition
°C
Dew Point Definition
°C
Rel Hum Definition
%
Precip. Amount Definition
mm

Wind Dir Definition
10's deg

Wind Spd Definition
km/h
Visibility Definition
km
Stn Press Definition
kPa
Hmdx Definition


Wind Chill Definition


Weather Definition


00:00 -10.6 -13.9 77   36 2 24.1 101.27   -12 LegendNANA
01:00 -11.4 -13.8 82   6 8 24.1 101.23   -16 Mostly Cloudy
02:00 -10.8 -13.5 81   5 5 24.1 101.25   -14 LegendNANA
03:00 -10.9 -13.7 80   8 7 24.1 101.24   -15 LegendNANA
04:00 -11.2 -13.8 81   5 7 24.1 101.23   -15 Cloudy
05:00 -10.8 -13.5 81   4 8 24.1 101.24   -15 LegendNANA
06:00 -11.2 -13.8 82   4 10 24.1 101.17   -17 LegendNANA
07:00 -11.0 -13.6 81   4 9 24.1 101.18   -16 Cloudy
08:00 -10.5 -13.0 82   3 8 24.1 101.23   -15 LegendNANA
09:00 -9.7 -12.6 80   4 5 12.9 101.23   -13 Snow
10:00 -8.5 -11.9 77   7 4 12.9 101.18   -11 Snow
11:00 -7.3 -12.0 70   11 13 16.1 101.10   -13 Snow
12:00 -6.9 -11.4 71   10 9 6.4 101.14   -11 Snow
13:00 -6.4 -9.8 77   12 7 3.2 101.06   -10 Snow
14:00 -6.0 -10.1 73   10 14 8.1 100.92   -12 Snow
15:00 -5.6 -10.3 70   15 7 24.1 101.00   -9 LegendNANA
16:00 -5.9 -10.5 70   36 3 24.1 101.02   -7 Mostly Cloudy
17:00 -5.9 -10.2 72   7 8 24.1 100.96   -10 LegendNANA
18:00 -7.5 -11.4 74   9 7 24.1 100.93   -11 LegendNANA
19:00 -6.9 -10.3 77   6 9 24.1 100.98   -11 Cloudy
20:00 -7.1 -10.4 77   11 13 24.1 100.87   -13 LegendNANA
21:00 -7.0 -10.4 77   7 9 24.1 100.79   -11 LegendNANA
22:00 -7.0 -10.0 79   6 11 24.1 100.68   -12 Cloudy
23:00 -7.6 -9.7 85   3 10 3.2 100.61   -12 Snow

Notes on Data Quality.

Legend

  • E = Estimated
  • M = Missing
  • NA = Not Available*
  • [empty] = Indicates an unobserved value
Date modified: